Flight Information

DEPARTURE
CASPER, WY
Elevation:
5344
Runways:
8/26 - 8679x150 - ASPH-F
3/21 - 10165x150 - ASPH-G
ATIS:
126.15
Clearance Delivery:
121.9
Ground:
121.9
Tower:
CASPER TOWER 118.3
DESTINATION
,
Elevation:
TPA:
1000 (est.)


6118.6 NM79° True-13° Var65° HDG

Flight Plan:
(click to file on line)

1. Type
2. Aircraft Identification
3. Aircraft Type / Special Equipment
4. True Airspeed
kts
5. Departure Airport
(ICAO code)
6. Arriving Airport
(ICAO code)
7. Cruising Altitude
ft
8. Alternate Airport
(ICAO code)
9. Route of Flight
10. Remarks


00:00:00 Departure ATIS: Destination ATIS:

Clearance Limit:
Route:
Altitude: Expect in minutes
Frequency:
Transponder: (7500 Hijack / 7600 Lost Comms / 7700 Emergency)


KCPR 282153Z 21022G32KT 10SM CLR 00/M10 A3029 RMK AO2 PK WND 20034/2123 SLP296 T00001100
Time: 2022-01-28T21:53:00Z
1643409820
Winds: 210 @ 22 kts
Gusting:32 kts
Visibility: 10.0 sm
Clouds (AGL): CLR
Temperature: 0.0 C
Dew Point: -10.0 C
Pressure: 30.28937 in Hgbr


Notes:

Data extracted from FAA Digital Chart Supplement. Effective: 0901Z Thursday, DEC 2, 2021 to 0901Z Thursday, JAN 27, 2022
Current ATIS data is provided courtisy of PilotEdge.